This is the latest recevied weather packets stored in our database for station/object G0TGD-10. If no packets are shown the sender has not sent any weather packets the latest 10 day(s).
| Time | Temp. | Humidity | Pressure | Rain* | Wind** | Luminosity | Snow |
|---|---|---|---|---|---|---|---|
| 1777910771 | 13.33° C | 70% | 1015.6 hPa | - | - | - | - |
| 1777909871 | 13.33° C | 70% | 1015.6 hPa | - | - | - | - |
| 1777908971 | 13.33° C | 71% | 1015.6 hPa | - | - | - | - |
| 1777908071 | 13.33° C | 71% | 1015.5 hPa | - | - | - | - |
| 1777907170 | 13.33° C | 71% | 1015.6 hPa | - | - | - | - |
| 1777906270 | 13.89° C | 70% | 1015.7 hPa | - | - | - | - |
| 1777905370 | 13.89° C | 70% | 1015.7 hPa | - | - | - | - |
| 1777904470 | 14.44° C | 69% | 1015.6 hPa | - | - | - | - |
| 1777903570 | 14.44° C | 70% | 1015.5 hPa | - | - | - | - |
| 1777902670 | 14.44° C | 70% | 1015.7 hPa | - | - | - | - |
| 1777901770 | 14.44° C | 70% | 1015.7 hPa | - | - | - | - |
| 1777900870 | 14.44° C | 71% | 1015.8 hPa | - | - | - | - |
| 1777899970 | 13.89° C | 71% | 1015.8 hPa | - | - | - | - |
| 1777899070 | 15° C | 69% | 1015.8 hPa | - | - | - | - |
| 1777898170 | 15° C | 70% | 1015.8 hPa | - | - | - | - |
| 1777897269 | 13.89° C | 72% | 1015.9 hPa | - | - | - | - |
| 1777896369 | 13.33° C | 72% | 1016 hPa | - | - | - | - |
| 1777895469 | 12.78° C | 73% | 1016 hPa | - | - | - | - |
| 1777894569 | 12.78° C | 72% | 1016 hPa | - | - | - | - |
| 1777893669 | 12.78° C | 73% | 1016 hPa | - | - | - | - |
| 1777892769 | 12.22° C | 73% | 1016 hPa | - | - | - | - |
| 1777891869 | 12.22° C | 74% | 1015.9 hPa | - | - | - | - |
| 1777890969 | 12.22° C | 73% | 1015.8 hPa | - | - | - | - |
| 1777890069 | 12.78° C | 73% | 1015.8 hPa | - | - | - | - |
| 1777889169 | 12.22° C | 74% | 1015.7 hPa | - | - | - | - |
* Rain since midnight (hover to see other rain measurements)
** Current wind speed in m/s (hover to see current wind gust speed)